Weather History for Summerville, SC

Change the Weather History Date:

Friday, November 8, 2013

  Actual Average (KCHS) Record (KCHS)
Temperature  
Mean Temperature 48 °F 61 °F  
Max Temperature 60 °F 72 °F 85 °F (1986)
Min Temperature 35 °F 50 °F 24 °F (1967)
Degree Days  
Heating Degree Days 18 6  
Month to date heating degree days 41  
Since 1 July heating degree days 110  
Cooling Degree Days 0 1  
Month to date cooling degree days 13  
Year to date cooling degree days 2277  
Moisture  
Dew Point 36 °F    
Average Humidity 62    
Maximum Humidity 100    
Minimum Humidity 31    
Precipitation  
Precipitation 0.00 in 0.08 in 1.38 in (1996)
Month to date precipitation 0.67  
Year to date precipitation 46.16  
Sea Level Pressure  
Sea Level Pressure 30.24 in    
Wind  
Wind Speed 9 mph (North)    
Max Wind Speed 16 mph    
Max Gust Speed 25 mph    
Visibility 10 miles    
Events      
T = Trace of Precipitation, MM = Missing Value Source: NWS Daily Summary

Daily Weather History Graph

Daily Weather History Graph

Search for Another Location

Airport:

Trip Planner

Search our weather history database for the weather conditions in past years. The results will help you decide how hot, cold, wet, or windy it might be!

Date:

Astronomy

Nov. 08, 2013 Rise Set
Actual Time 6:45 AM EST 5:23 PM EST
Civil Twilight 6:19 AM EST 5:49 PM EST
Nautical Twilight 5:50 AM EST 6:19 PM EST
Astronomical Twilight 5:21 AM EST 6:48 PM EST
Moon 11:40 AM EST (11/8) 10:41 PM EST (11/8)
Length of Visible Light 11h 29m
Length of Day
10h 38m
Waxing Crescent, 33% of the Moon is Illuminated
Nov 8
Waxing Crescent
Nov 10
First Quarter
Nov 17
Full
Nov 25
Last Quarter
Dec 2
New

Hourly Weather History & Observations

Time (EST) Temp. Windchill Dew Point Humidity Pressure Visibility Wind Dir Wind Speed Gust Speed Precip Events Conditions
12:15 AM 57.2 °F - 46.4 °F 67% 30.07 in 10.0 mi North 11.5 mph - N/A   Clear
12:35 AM 57.2 °F - 42.8 °F 59% 30.09 in 10.0 mi North 11.5 mph 16.1 mph N/A   Scattered Clouds
12:55 AM 55.4 °F - 41.0 °F 58% 30.10 in 10.0 mi North 11.5 mph 18.4 mph N/A   Overcast
1:15 AM 55.4 °F - 41.0 °F 58% 30.11 in 10.0 mi North 6.9 mph - N/A   Overcast
1:35 AM 55.4 °F - 41.0 °F 58% 30.11 in 10.0 mi North 8.1 mph - N/A   Mostly Cloudy
1:55 AM 53.6 °F - 37.4 °F 54% 30.12 in 10.0 mi North 12.7 mph 19.6 mph N/A   Mostly Cloudy
2:15 AM 53.6 °F - 35.6 °F 51% 30.13 in 10.0 mi North 11.5 mph 16.1 mph N/A   Mostly Cloudy
2:35 AM 53.6 °F - 35.6 °F 51% 30.14 in 10.0 mi North 11.5 mph 20.7 mph N/A   Scattered Clouds
2:55 AM 53.6 °F - 35.6 °F 51% 30.15 in 10.0 mi North 12.7 mph 18.4 mph N/A   Scattered Clouds
3:15 AM 51.8 °F - 35.6 °F 54% 30.15 in 10.0 mi North 11.5 mph 17.3 mph N/A   Scattered Clouds
3:35 AM 51.8 °F - 35.6 °F 54% 30.15 in 10.0 mi North 10.4 mph 18.4 mph N/A   Scattered Clouds
3:55 AM 50.0 °F - 35.6 °F 58% 30.16 in 10.0 mi North 11.5 mph 16.1 mph N/A   Scattered Clouds
4:15 AM 50.0 °F - 35.6 °F 58% 30.17 in 10.0 mi North 10.4 mph - N/A   Clear
4:35 AM 48.2 °F - 35.6 °F 62% 30.17 in 10.0 mi North 9.2 mph - N/A   Clear
4:55 AM 46.4 °F 41.5 °F 35.6 °F 66% 30.19 in 10.0 mi North 10.4 mph - N/A   Clear
5:15 AM 46.4 °F 42.4 °F 35.6 °F 66% 30.19 in 10.0 mi North 8.1 mph - N/A   Clear
5:35 AM 46.4 °F 42.4 °F 35.6 °F 66% 30.20 in 10.0 mi North 8.1 mph - N/A   Clear
5:55 AM 46.4 °F 42.9 °F 35.6 °F 66% 30.20 in 10.0 mi North 6.9 mph - N/A   Clear
6:15 AM 44.6 °F 40.7 °F 35.6 °F 71% 30.22 in 10.0 mi North 6.9 mph - N/A   Clear
6:35 AM 44.6 °F 40.7 °F 35.6 °F 71% 30.22 in 10.0 mi North 6.9 mph - N/A   Clear
6:55 AM 44.6 °F 39.7 °F 35.6 °F 71% 30.23 in 10.0 mi North 9.2 mph - N/A   Clear
7:15 AM 44.6 °F 39.2 °F 35.6 °F 71% 30.24 in 10.0 mi North 10.4 mph - N/A   Clear
7:35 AM 46.4 °F 41.9 °F 35.6 °F 66% 30.25 in 10.0 mi North 9.2 mph - N/A   Clear
7:55 AM 48.2 °F - 37.4 °F 66% 30.26 in 10.0 mi NNE 11.5 mph 18.4 mph N/A   Clear
8:15 AM 50.0 °F - 35.6 °F 58% 30.27 in 10.0 mi North 12.7 mph 25.3 mph N/A   Clear
8:35 AM 50.0 °F - 35.6 °F 58% 30.28 in 10.0 mi North 10.4 mph 25.3 mph N/A   Clear
8:55 AM 51.8 °F - 33.8 °F 50% 30.28 in 10.0 mi North 16.1 mph 25.3 mph N/A   Clear
9:15 AM 51.8 °F - 35.6 °F 54% 30.29 in 10.0 mi North 12.7 mph 21.9 mph N/A   Clear
9:35 AM 53.6 °F - 33.8 °F 47% 30.29 in 10.0 mi NNE 9.2 mph 23.0 mph N/A   Clear
9:55 AM 53.6 °F - 33.8 °F 47% 30.29 in 10.0 mi NNE 10.4 mph 19.6 mph N/A   Clear
10:15 AM 55.4 °F - 32.0 °F 41% 30.30 in 10.0 mi NE 10.4 mph 19.6 mph N/A   Clear
10:35 AM 55.4 °F - 32.0 °F 41% 30.30 in 10.0 mi North 16.1 mph 25.3 mph N/A   Clear
10:55 AM 55.4 °F - 32.0 °F 41% 30.29 in 10.0 mi NNE 13.8 mph 19.6 mph N/A   Clear
11:15 AM 57.2 °F - 32.0 °F 38% 30.29 in 10.0 mi NNE 13.8 mph 19.6 mph N/A   Clear
11:35 AM 57.2 °F - 32.0 °F 38% 30.28 in 10.0 mi NNE 11.5 mph 17.3 mph N/A   Clear
11:55 AM 59.0 °F - 32.0 °F 36% 30.28 in 10.0 mi North 10.4 mph 19.6 mph N/A   Clear
12:15 PM 59.0 °F - 32.0 °F 36% 30.26 in 10.0 mi North 12.7 mph 16.1 mph N/A   Clear
12:35 PM 59.0 °F - 32.0 °F 36% 30.25 in 10.0 mi NNE 11.5 mph 18.4 mph N/A   Clear
12:55 PM 60.8 °F - 32.0 °F 34% 30.25 in 10.0 mi NNW 8.1 mph 16.1 mph N/A   Clear
1:15 PM 60.8 °F - 32.0 °F 34% 30.24 in 10.0 mi North 8.1 mph - N/A   Clear
1:35 PM 60.8 °F - 33.8 °F 36% 30.23 in 10.0 mi North 10.4 mph - N/A   Clear
1:55 PM 60.8 °F - 32.0 °F 34% 30.24 in 10.0 mi North 10.4 mph 16.1 mph N/A   Clear
2:15 PM 60.8 °F - 32.0 °F 34% 30.23 in 10.0 mi North 10.4 mph 17.3 mph N/A   Clear
2:35 PM 60.8 °F - 32.0 °F 34% 30.23 in 10.0 mi North 12.7 mph 18.4 mph N/A   Clear
2:55 PM 60.8 °F - 30.2 °F 31% 30.23 in 10.0 mi North 9.2 mph 17.3 mph N/A   Clear
3:15 PM 60.8 °F - 30.2 °F 31% 30.23 in 10.0 mi North 13.8 mph 17.3 mph N/A   Clear
3:35 PM 60.8 °F - 32.0 °F 34% 30.24 in 10.0 mi North 8.1 mph - N/A   Clear
3:55 PM 60.8 °F - 32.0 °F 34% 30.23 in 10.0 mi NNE 9.2 mph - N/A   Clear
4:15 PM 60.8 °F - 32.0 °F 34% 30.23 in 10.0 mi NNE 8.1 mph - N/A   Clear
4:35 PM 59.0 °F - 32.0 °F 36% 30.24 in 10.0 mi North 5.8 mph - N/A   Clear
4:55 PM 57.2 °F - 33.8 °F 41% 30.24 in 10.0 mi North 3.5 mph - N/A   Clear
5:15 PM 53.6 °F - 37.4 °F 54% 30.25 in 10.0 mi Calm Calm - N/A   Clear
5:35 PM 50.0 °F - 37.4 °F 62% 30.25 in 10.0 mi Calm Calm - N/A   Clear
5:55 PM 48.2 °F - 39.2 °F 71% 30.25 in 10.0 mi Calm Calm - N/A   Clear
6:15 PM 46.4 °F - 39.2 °F 76% 30.26 in 10.0 mi Calm Calm - N/A   Clear
6:35 PM 46.4 °F - 41.0 °F 81% 30.26 in 10.0 mi Calm Calm - N/A   Clear
6:55 PM 44.6 °F - 41.0 °F 87% 30.27 in 10.0 mi Calm Calm - N/A   Clear
7:15 PM 42.8 °F - 41.0 °F 93% 30.27 in 10.0 mi Calm Calm - N/A   Clear
7:35 PM 42.8 °F - 41.0 °F 93% 30.28 in 10.0 mi Calm Calm - N/A   Clear
7:55 PM 41.0 °F - 39.2 °F 93% 30.28 in 10.0 mi Calm Calm - N/A   Clear
8:15 PM 41.0 °F - 41.0 °F 100% 30.29 in 10.0 mi Calm Calm - N/A   Clear
8:35 PM 41.0 °F - 39.2 °F 93% 30.29 in 10.0 mi Calm Calm - N/A   Clear
8:55 PM 41.0 °F - 39.2 °F 93% 30.29 in 10.0 mi Calm Calm - N/A   Clear
9:15 PM 39.2 °F - 39.2 °F 100% 30.30 in 10.0 mi Calm Calm - N/A   Clear
9:35 PM 37.4 °F - 37.4 °F 100% 30.29 in 10.0 mi Calm Calm - N/A   Clear
9:55 PM 39.2 °F - 39.2 °F 100% 30.30 in 10.0 mi Calm Calm - N/A   Clear
10:15 PM 37.4 °F - 37.4 °F 100% 30.30 in 10.0 mi Calm Calm - N/A   Clear
10:35 PM 37.4 °F - 37.4 °F 100% 30.30 in 10.0 mi Calm Calm - N/A   Clear
10:55 PM 37.4 °F - 37.4 °F 100% 30.31 in 10.0 mi Calm Calm - N/A   Clear
11:15 PM 37.4 °F - 37.4 °F 100% 30.30 in 10.0 mi Calm Calm - N/A   Clear
11:35 PM 35.6 °F - 35.6 °F 100% 30.30 in 10.0 mi Calm Calm - N/A   Clear
11:55 PM 35.6 °F - 35.6 °F 100% 30.30 in 10.0 mi Calm Calm - N/A   Clear